Location: Donald C. Martin Observatory
(38.3885°N, 82.3916°W)
Time: 12:51:51
(UTC-04:00)

Cosmos 1484 Rocket - Visible Passes

Search period start: 30 September 2016 00:00
Search period end: 10 October 2016 00:00
Orbit: 509 x 562 km, 97.4° (Epoch: 29 September)

Date Brightness Start Highest point End Pass type
(mag) Time Alt. Az. Time Alt. Az. Time Alt. Az.
30 Sep 2.8 19:30:48 10° SSE 19:34:36 63° ENE 19:38:30 10° N visible
01 Oct 6.4 21:00:05 10° W 21:00:45 10° W 21:01:27 10° W visible
02 Oct 6.1 20:50:05 10° WSW 20:52:02 13° W 20:54:00 10° WNW visible
03 Oct 5.9 20:40:45 10° SW 20:43:19 17° W 20:45:57 10° NW visible
04 Oct 5.5 20:31:36 10° SW 20:34:37 21° W 20:37:42 10° NW visible
05 Oct 5.1 20:22:36 10° SSW 20:25:56 27° W 20:29:20 10° NW visible
06 Oct 4.6 20:13:41 10° SSW 20:17:14 34° W 20:20:54 10° NNW visible
07 Oct 4.1 20:04:50 10° S 20:08:34 44° W 20:12:23 10° NNW visible
08 Oct 3.5 19:56:03 10° S 19:59:54 58° W 20:03:51 10° NNW visible
09 Oct 3.0 19:47:20 10° S 19:51:15 76° W 19:55:15 10° NNW visible
